Hourly Weather Stavropol'

Today, 18 January, Monday

Time Temperature Precipitation Wind Pressure Humidity
00:00 -3°C° 0 mm 2 mps 717 mmHg 91%
01:00 -4°C° 0.8 mm 3 mps 717 mmHg 92%
02:00 -4°C° 0.8 mm 3 mps 717 mmHg 93%
03:00 -4°C° 0 mm 3 mps 718 mmHg 92%
04:00 -3°C° 0.3 mm 2 mps 719 mmHg 94%
05:00 -3°C° 0.3 mm 2 mps 719 mmHg 95%
06:00 -3°C° 0.3 mm 2 mps 720 mmHg 96%
07:00 -5°C° 0.1 mm 3 mps 720 mmHg 94%
08:00 -7°C° 0.1 mm 5 mps 720 mmHg 92%
09:00 -9°C° 0.1 mm 6 mps 721 mmHg 90%
10:00 -9°C° 0 mm 6 mps 721 mmHg 89%
11:00 -9°C° 0 mm 7 mps 722 mmHg 88%
12:00 -9°C° 0 mm 7 mps 722 mmHg 87%
13:00 -9°C° 0 mm 6 mps 722 mmHg 87%
14:00 -9°C° 0 mm 6 mps 722 mmHg 88%
15:00 -9°C° 0 mm 6 mps 722 mmHg 88%
16:00 -9°C° 0 mm 6 mps 723 mmHg 89%
17:00 -9°C° 0 mm 6 mps 724 mmHg 89%
18:00 -10°C° 0 mm 5 mps 724 mmHg 90%
19:00 -8°C° 0 mm 5 mps 725 mmHg 90%
20:00 -8°C° 0 mm 5 mps 725 mmHg 90%
21:00 -8°C° 0 mm 5 mps 725 mmHg 90%
22:00 -8°C° 0 mm 5 mps 726 mmHg 91%
23:00 -9°C° 0 mm 4 mps 726 mmHg 92%

Tomorrow, 19 January, Tuesday

Time Temperature Precipitation Wind Pressure Humidity
00:00 -9°C° 0 mm 4 mps 726 mmHg 92%
01:00 -9°C° 0 mm 4 mps 727 mmHg 92%
02:00 -9°C° 0 mm 4 mps 727 mmHg 92%
03:00 -8°C° 0 mm 3 mps 727 mmHg 91%
04:00 -8°C° 0 mm 3 mps 727 mmHg 92%
05:00 -8°C° 0 mm 2 mps 727 mmHg 93%
06:00 -7°C° 0 mm 1 mps 727 mmHg 94%
07:00 -6°C° 0 mm 1 mps 727 mmHg 92%
08:00 -6°C° 0 mm 1 mps 727 mmHg 90%
09:00 -4°C° 0 mm 1 mps 727 mmHg 87%
10:00 -5°C° 0 mm 2 mps 727 mmHg 83%
11:00 -5°C° 0 mm 3 mps 727 mmHg 78%
12:00 -4°C° 0 mm 4 mps 727 mmHg 74%
13:00 -5°C° 0.1 mm 4 mps 727 mmHg 79%
14:00 -7°C° 0.1 mm 5 mps 727 mmHg 84%
15:00 -7°C° 0.1 mm 5 mps 726 mmHg 89%
16:00 -8°C° 0.1 mm 4 mps 727 mmHg 90%
17:00 -8°C° 0.1 mm 3 mps 728 mmHg 91%
18:00 -7°C° 0.1 mm 2 mps 728 mmHg 92%
19:00 -7°C° 0 mm 2 mps 728 mmHg 92%
20:00 -8°C° 0 mm 2 mps 729 mmHg 91%
21:00 -8°C° 0 mm 2 mps 729 mmHg 91%
22:00 -8°C° 0.1 mm 2 mps 729 mmHg 91%
23:00 -8°C° 0.1 mm 2 mps 729 mmHg 91%

Day after tomorrow, 20 January, Wednesday

Time Temperature Precipitation Wind Pressure Humidity
00:00 -9°C° 0.1 mm 3 mps 730 mmHg 91%
01:00 -9°C° 0.1 mm 3 mps 730 mmHg 91%
02:00 -8°C° 0.1 mm 2 mps 730 mmHg 91%
03:00 -8°C° 0.1 mm 2 mps 730 mmHg 92%
04:00 -8°C° 0 mm 2 mps 730 mmHg 92%
05:00 -9°C° 0 mm 2 mps 730 mmHg 92%
06:00 -8°C° 0 mm 1 mps 730 mmHg 92%
07:00 -8°C° 0 mm 1 mps 731 mmHg 92%
08:00 -8°C° 0 mm 1 mps 731 mmHg 91%
09:00 -7°C° 0 mm 1 mps 731 mmHg 91%
10:00 -8°C° 0 mm 2 mps 731 mmHg 87%
11:00 -7°C° 0 mm 2 mps 731 mmHg 84%
12:00 -6°C° 0 mm 2 mps 731 mmHg 81%
13:00 -7°C° 0 mm 3 mps 731 mmHg 80%
14:00 -7°C° 0 mm 3 mps 731 mmHg 78%
15:00 -6°C° 0 mm 3 mps 731 mmHg 77%
16:00 -7°C° 0 mm 3 mps 731 mmHg 82%
17:00 -7°C° 0 mm 2 mps 732 mmHg 87%
18:00 -8°C° 0 mm 2 mps 732 mmHg 91%
19:00 -8°C° 0 mm 2 mps 732 mmHg 92%
20:00 -8°C° 0 mm 2 mps 733 mmHg 92%
21:00 -8°C° 0 mm 2 mps 733 mmHg 92%
22:00 -9°C° 0 mm 2 mps 733 mmHg 92%
23:00 -9°C° 0 mm 2 mps 733 mmHg 93%

21 January, Thursday

Time Temperature Precipitation Wind Pressure Humidity
00:00 -9°C° 0 mm 2 mps 733 mmHg 94%
01:00 -10°C° 0 mm 2 mps 733 mmHg 94%
02:00 -10°C° 0 mm 2 mps 734 mmHg 93%
03:00 -10°C° 0 mm 2 mps 734 mmHg 93%
04:00 -9°C° 0 mm 1 mps 734 mmHg 93%
05:00 -8°C° 0 mm 1 mps 734 mmHg 92%
06:00 -8°C° 0 mm 1 mps 734 mmHg 92%
07:00 -7°C° 0.1 mm 1 mps 734 mmHg 91%
08:00 -7°C° 0.1 mm 1 mps 734 mmHg 90%
09:00 -6°C° 0.1 mm 1 mps 734 mmHg 90%
10:00 -4°C° 0.2 mm 1 mps 734 mmHg 90%
11:00 -4°C° 0.2 mm 1 mps 734 mmHg 90%
12:00 -3°C° 0.2 mm 1 mps 734 mmHg 91%
13:00 -2°C° 0.2 mm 1 mps 734 mmHg 91%
14:00 -2°C° 0.2 mm 1 mps 734 mmHg 92%
15:00 -1°C° 0.2 mm 1 mps 734 mmHg 93%
16:00 -2°C° 0.2 mm 1 mps 734 mmHg 94%
17:00 -2°C° 0.2 mm 1 mps 735 mmHg 95%
18:00 -2°C° 0.2 mm 1 mps 735 mmHg 96%
19:00 -2°C° 0 mm 1 mps 735 mmHg 95%
20:00 -4°C° 0 mm 2 mps 735 mmHg 94%
21:00 -4°C° 0 mm 2 mps 735 mmHg 93%
22:00 -4°C° 0 mm 2 mps 735 mmHg 92%
23:00 -5°C° 0 mm 2 mps 735 mmHg 90%

22 January, Friday

Time Temperature Precipitation Wind Pressure Humidity
00:00 -5°C° 0 mm 2 mps 735 mmHg 89%
01:00 -5°C° 0 mm 2 mps 735 mmHg 85%
02:00 -4°C° 0 mm 2 mps 735 mmHg 81%
03:00 -4°C° 0 mm 2 mps 734 mmHg 78%
04:00 -4°C° 0 mm 2 mps 734 mmHg 75%
05:00 -4°C° 0 mm 2 mps 734 mmHg 73%
06:00 -4°C° 0 mm 2 mps 734 mmHg 70%
07:00 -4°C° 0 mm 2 mps 734 mmHg 70%
08:00 -3°C° 0 mm 2 mps 734 mmHg 69%
09:00 -1°C° 0 mm 1 mps 735 mmHg 69%
10:00 0°C° 0 mm 1 mps 734 mmHg 74%
11:00 +1°C° 0 mm 1 mps 734 mmHg 79%
12:00 +2°C° 0 mm 1 mps 734 mmHg 84%
13:00 +3°C° 0 mm 1 mps 733 mmHg 83%
14:00 +3°C° 0 mm 1 mps 733 mmHg 81%
15:00 +2°C° 0 mm 2 mps 733 mmHg 80%
16:00 +1°C° 0 mm 2 mps 733 mmHg 76%
17:00 -1°C° 0 mm 2 mps 733 mmHg 72%
18:00 -1°C° 0 mm 2 mps 733 mmHg 68%
19:00 -2°C° 0 mm 2 mps 733 mmHg 68%
20:00 -2°C° 0 mm 2 mps 733 mmHg 67%
21:00 -2°C° 0 mm 2 mps 733 mmHg 67%
22:00 -2°C° 0 mm 2 mps 732 mmHg 67%
23:00 -2°C° 0 mm 2 mps 732 mmHg 68%

23 January, Saturday

Time Temperature Precipitation Wind Pressure Humidity
00:00 -3°C° 0 mm 2 mps 732 mmHg 68%
01:00 -3°C° 0 mm 2 mps 732 mmHg 68%
02:00 -3°C° 0 mm 2 mps 731 mmHg 68%
03:00 -2°C° 0 mm 2 mps 731 mmHg 68%
04:00 -3°C° 0 mm 2 mps 731 mmHg 68%
05:00 -3°C° 0 mm 2 mps 731 mmHg 68%
06:00 -3°C° 0 mm 2 mps 731 mmHg 68%
07:00 -2°C° 0 mm 2 mps 731 mmHg 67%
08:00 -2°C° 0 mm 2 mps 731 mmHg 67%
09:00 -2°C° 0 mm 3 mps 731 mmHg 67%
10:00 -1°C° 0 mm 2 mps 731 mmHg 70%
11:00 +1°C° 0 mm 2 mps 731 mmHg 73%
12:00 +2°C° 0 mm 2 mps 730 mmHg 76%
13:00 +2°C° 0 mm 2 mps 730 mmHg 74%
14:00 +3°C° 0 mm 2 mps 730 mmHg 72%
15:00 +3°C° 0 mm 2 mps 729 mmHg 70%
16:00 +2°C° 0 mm 2 mps 729 mmHg 68%
17:00 +1°C° 0 mm 2 mps 729 mmHg 65%
18:00 +1°C° 0 mm 2 mps 729 mmHg 62%
19:00 -1°C° 0 mm 2 mps 729 mmHg 62%
20:00 -1°C° 0 mm 2 mps 729 mmHg 62%
21:00 -1°C° 0 mm 2 mps 729 mmHg 62%
22:00 -1°C° 0 mm 2 mps 728 mmHg 61%
23:00 -1°C° 0 mm 2 mps 728 mmHg 61%
Show more